Meeker, CO

1:39 PM MDT on August 18, 2017 (GMT -0600)
Meeker

Weather History for KEEO - October, 2012

Change the Weather History Date:

Monday, October 8, 2012

  Actual Average Record
Temperature  
Mean Temperature 42 °F 48 °F  
Max Temperature 66 °F 64 °F 88 °F (1999)
Min Temperature 18 °F 31 °F 18 °F (2012)
Degree Days  
Heating Degree Days 23 17  
Month to date heating degree days 153 128  
Since 1 July heating degree days 373 435  
Cooling Degree Days 0 0  
Month to date cooling degree days 0 0  
Year to date cooling degree days 325 172  
Moisture  
Dew Point 5 °F    
Average Humidity 28    
Maximum Humidity 49    
Minimum Humidity 7    
Precipitation  
Precipitation 0.00 in 0.06 in 0.20 in (2001)
Month to date precipitation 0.00 0.51  
Year to date precipitation 6.45 12.13  
Sea Level Pressure  
Sea Level Pressure 30.05 in    
Wind  
Wind Speed 6 mph (WNW)    
Max Wind Speed 21 mph    
Max Gust Speed 28 mph    
Visibility 7 miles    
Events      
T = Trace of Precipitation, MM = Missing Value Source: NWS Daily Summary

Daily Weather History Graph

Daily Weather History Graph

Search for Another Location

Airport or City:

Trip Planner

Search our weather history database for the weather conditions in past years. The results will help you decide how hot, cold, wet, or windy it might be!

Date:

Astronomy

Oct. 08, 2012 Rise Set
Actual Time 7:15 AM MDT 6:41 PM MDT
Civil Twilight 6:48 AM MDT 7:08 PM MDT
Nautical Twilight 6:16 AM MDT 7:40 PM MDT
Astronomical Twilight 5:45 AM MDT 8:11 PM MDT
Moon No Moon Rise 2:33 PM MDT (10/8)
Length of Visible Light 12h 20m
Length of Day
11h 26m
Last Quarter, 46% of the Moon is Illuminated
Oct 8
Last Quarter
Oct 15
New
Oct 21
First Quarter
Oct 29
Full
Nov 6
Last Quarter

Hourly Weather History & Observations

Time (MDT) Temp. Windchill Dew Point Humidity Pressure Visibility Wind Dir Wind Speed Gust Speed Precip Events Conditions
12:53 AM 28.0 °F - 3.0 °F 34% 30.13 in 10.0 mi Calm Calm - N/A   Clear
1:53 AM 26.1 °F - 3.9 °F 39% 30.13 in 10.0 mi Calm Calm - N/A   Clear
2:53 AM 24.1 °F - 3.0 °F 40% 30.14 in 10.0 mi Calm Calm - N/A   Clear
3:53 AM 23.0 °F 18.4 °F 3.9 °F 44% 30.12 in 10.0 mi ENE 3.5 mph - N/A   Clear
4:53 AM 19.9 °F 14.9 °F 1.9 °F 46% 30.14 in 10.0 mi NE 3.5 mph - N/A   Clear
5:53 AM 19.0 °F 12.3 °F 1.9 °F 47% 30.14 in 10.0 mi ENE 4.6 mph - N/A   Clear
6:53 AM 19.0 °F - 3.9 °F 52% 30.18 in 10.0 mi Calm Calm - N/A   Clear
7:53 AM 25.0 °F 20.7 °F 5.0 °F 43% 30.20 in 10.0 mi Variable 3.5 mph - N/A   Clear
8:42 AM 28.4 °F - 8.6 °F 43% 30.17 in 5.0 mi Calm Calm - N/A   Haze
8:49 AM 30.2 °F - 8.6 °F 40% 30.17 in 1.8 mi Calm Calm - N/A   Haze
8:53 AM 32.0 °F - 9.0 °F 38% 30.19 in 1.0 mi Calm Calm - N/A   Haze
9:01 AM 33.8 °F - 8.6 °F 35% 30.17 in 2.0 mi Calm Calm - N/A   Haze
9:09 AM 35.6 °F - 8.6 °F 33% 30.16 in 7.0 mi Calm Calm - N/A   Partly Cloudy
9:53 AM 42.1 °F - 8.1 °F 25% 30.12 in 10.0 mi Calm Calm - N/A   Clear
10:48 AM 51.8 °F - 6.8 °F 16% 30.13 in 6.0 mi Calm Calm - N/A   Haze
10:53 AM 51.1 °F - 6.1 °F 16% 30.06 in 7.0 mi Calm Calm - N/A   Partly Cloudy
11:53 AM 57.9 °F - 7.0 °F 13% 30.01 in 10.0 mi SW 6.9 mph - N/A   Clear
12:53 PM 61.0 °F - 1.9 °F 9% 29.97 in 10.0 mi West 5.8 mph 17.3 mph N/A   Clear
1:37 PM 64.4 °F - -0.4 °F 7% 30.05 in 2.5 mi West 19.6 mph 25.3 mph N/A   Haze
1:53 PM 64.0 °F - -2.0 °F 7% 29.94 in 8.0 mi WSW 15.0 mph 24.2 mph N/A   Clear
2:53 PM 66.0 °F - -0.0 °F 7% 29.91 in 10.0 mi West 19.6 mph 25.3 mph N/A   Clear
3:53 PM 66.0 °F - -0.0 °F 7% 29.91 in 10.0 mi West 8.1 mph 20.7 mph N/A   Clear
4:53 PM 64.9 °F - 3.0 °F 9% 29.92 in 10.0 mi WNW 12.7 mph 24.2 mph N/A   Clear
5:36 PM 64.4 °F - 3.2 °F 9% 30.00 in 2.0 mi West 9.2 mph 19.6 mph N/A   Haze
5:43 PM 64.4 °F - 3.2 °F 9% 30.00 in 1.5 mi NW 11.5 mph - N/A   Haze
5:53 PM 63.0 °F - 3.9 °F 10% 29.94 in 1.8 mi West 11.5 mph 20.7 mph N/A   Haze
6:01 PM 62.6 °F - 3.2 °F 9% 30.00 in 2.0 mi West 12.7 mph - N/A   Haze
6:08 PM 62.6 °F - 3.2 °F 9% 30.00 in 0.8 mi West 10.4 mph - N/A   Haze
6:19 PM 62.6 °F - 3.2 °F 9% 30.00 in 2.0 mi West 8.1 mph - N/A   Haze
6:37 PM 59.0 °F - 6.8 °F 13% 30.00 in 6.0 mi SSW 9.2 mph - N/A   Haze
6:53 PM 55.0 °F - 9.0 °F 16% 29.98 in 8.0 mi SW 6.9 mph - N/A   Clear
8:53 PM 54.0 °F - 10.0 °F 17% 29.95 in 10.0 mi WSW 9.2 mph - N/A   Clear
9:53 PM 45.0 °F 41.2 °F 10.0 °F 24% 29.96 in 10.0 mi NNW 6.9 mph - N/A   Clear
10:53 PM 39.9 °F 37.8 °F 12.9 °F 33% 29.96 in 10.0 mi NNE 3.5 mph - N/A   Clear
11:53 PM 35.1 °F 31.0 °F 9.0 °F 34% 29.96 in 10.0 mi NE 4.6 mph - N/A   Clear